Location: Gad�tanya
(48.0500°N, 20.8500°E)
Time: 22:49:35
(UTC+00:00)

Meteor 1-10 Rocket - Pass Details

Date: 05 July 2020
Orbit: 835 x 911 km, 81.3° (Epoch: 05 August)

Event Time Altitude Azimuth Distance (km) Brightness Sun altitude
Rises 23:24:56 0° 347° (NNW) 3,422 8.6 -18.6°
Reaches altitude 10° 23:27:22 10° 346° (NNW) 2,474 7.6 -18.5°
Maximum altitude 23:32:57 79° 261° (W) 860 4.1 -18.3°
Enters shadow 23:35:41 31° 180° (S) 1,420 4.8 -18.2°
